Regional Weather Roundup
Issued by NWS

Home | Current Version | Previous Version | Text Only | Print | Product List | Glossary Off
Versions: 1 2 3 4 5 6 7 8 9 10 11 12 13 14 15 16 17 18 19 20 21 22 23 24 25 26 27 28 29 30 31 32 33 34 35 36 37 38 39 40 41 42 43 44 45 46 47 48 49 50

000
ASUS43 KTOP 221859
RWRKS

WEATHER ROUNDUP FOR KANSAS
NATIONAL WEATHER SERVICE GOODLAND KS
200 PM CDT FRI AUG 22 2014

NOTE:  "FAIR" INDICATES FEW OR NO CLOUDS BELOW 12,000 FEET WITH NO
SIGNIFICANT WEATHER AND/OR OBSTRUCTIONS TO VISIBILITY.

KSZ001>006-013>018-027>032-041>047-222000-
NORTHWEST KANSAS

CITY           SKY/WX    TMP DP  RH WIND       PRES   REMARKS
GOODLAND       PTSUNNY   84  58  40 NE14      30.05S
HAYS           SUNNY     91  68  46 NE9       29.91F HX  95
HILL CITY      MOSUNNY   92  68  45 E14G21    29.94F HX  96
RUSSELL        SUNNY     95  65  37 VRB7      29.89F HX  97
$$

KSZ061>065-074>080-084>089-222000-
SOUTHWEST KANSAS

CITY           SKY/WX    TMP DP  RH WIND       PRES   REMARKS
DODGE CITY     MOSUNNY   94  61  33 SE10      29.94F
ELKHART          N/A     97  57  26 S10         N/A  HX  96
GARDEN CITY    PTSUNNY   93  60  33 E8        29.94F
GREAT BEND     SUNNY     95  64  36 SE8       29.89F HX  97
LIBERAL        SUNNY    100  59  25 S20       29.95F HX 100
$$

KSZ066>073-081>083-090>101-222000-
SOUTHEAST KANSAS

CITY           SKY/WX    TMP DP  RH WIND       PRES   REMARKS
CHANUTE        SUNNY     96  70  42 S12G21    29.95S HX 102
COFFEYVILLE    SUNNY     97  71  42 S14       29.93F HX 104
HUTCHINSON     MOSUNNY   99  67  35 VRB5      29.90F HX 103
NEWTON         MOSUNNY   97  66  36 S9        29.96F HX 100
PARSONS        SUNNY     96  71  44 S12G18    29.96F HX 103
WICHITA INTL   PTSUNNY   98  66  34 S18       29.90F HX 101
WICHITA JABRA  CLOUDY    96  68  39 S12       29.91F HX 101
WINFIELD       SUNNY     98  67  36 S15G24    29.93F HX 102
$$

KSZ007>012-019>026-033>040-048>060-102>105-222000-
NORTHEAST KANSAS

CITY           SKY/WX    TMP DP  RH WIND       PRES   REMARKS
CONCORDIA      PTSUNNY   84  79  85 VRB3      29.91R HX  96
EMPORIA        PTSUNNY   82  70  66 SE8       29.94F
LAWRENCE       PTSUNNY   97  73  45 SE9       29.92S HX 107
MANHATTAN      MOSUNNY   96  70  42 SW20      29.90R HX 102
OLATHE IND     PTSUNNY   94  72  48 S10       29.95S HX 102
OLATHE EXE     PTSUNNY   89  72  56 S7        29.94S HX  96
SALINA         PTSUNNY   89  71  55 SE10      29.91S HX  95
TOPEKA BILLARD PTSUNNY   93  72  50 S10       29.91S HX 101
TOPEKA FORBES  PTSUNNY   93  70  46 S10       29.92F HX  99
$$


USA.gov is the U.S. government's official web portal to all federal, state and local government web resources and services.